HXMT (HUIYAN)

Last updated on Sat Jul 05 2025 00:02:14 GMT+0000 (Coordinated Universal Time)

1 42758U 17034A 25185.65641507 .00004765 00000+0 26692-3 0 9995 2 42758 43.0152 311.7835 0033349 110.5287 249.9144 15.14002914444920
UTC large
Height (km)
Speed (km/s)
/
Latitude / Longitude
Inclination (degrees)
Orbital Period (minutes)
Azimuth
Elevation
Range (km)
Doppler Factor

Next 0 passes for location: London (51.5072 / 0.1276)

Sorry there are no passes over London.